Back to catalog

NOAA 16 DEB

AliveSSO
NORAD 41154·DEBRIS·🇺🇸 United States

Launched Sep 21, 2000 from Vandenberg Space Force Base

Loading…

Next Passes (next 24 hours)

TLE

FreshSource: Space-Track

Epoch: Sep 14, 2026, 06:39 UTC

1 41154U 00055CM  26257.27720419  .00001804  00000-0  98484-3 0  9998
2 41154  98.7602 276.3037 0057252  84.8862 275.8842 14.12459602552174

Track NOAA 16 DEB in real time with AllMySat

Download on the App Store